User: anonymous   Login
Location: Caltech
(34.1382°N, 118.1253°W)
Time: 23:50:54
(UTC-07:00)
Language:

AO-27 - Orbit

View from above orbital plane
View from above orbital plane
View from above satellite
View from above satellite

Ground track
Ground track

The orbit data is extracted from the following two-line orbital elements,

1 22825U 93061C   18142.89222706  .00000006  00000-0  20301-4 0  9996
2 22825  98.8608 118.5520 0009432  63.7939 296.4211 14.30030511285959
Epoch (UTC): 22 May 2018 21:24:48
Eccentricity: 0.0009432
inclination: 98.8608°
perigee height: 785 km
apogee height: 798 km
right ascension of ascending node: 118.5520°
argument of perigee: 63.7939°
revolutions per day: 14.30030511
mean anomaly at epoch: 296.4211°
orbit number at epoch: 28595

The dashed part of the orbit path shows where the satellite is in the earth's shadow,  

DLR